McConnell AFB, KS

11:34 PM CDT on June 24, 2017 (GMT -0500)
McConnell Air Force Base

Weather History for KIAB - January, 2014

Change the Weather History Date:

Tuesday, January 14, 2014

  Actual Average Record
Temperature  
Mean Temperature 40 °F -  
Max Temperature 46 °F 41 °F 62 °F (2004)
Min Temperature 33 °F 23 °F 8 °F (2005)
Degree Days  
Heating Degree Days 26    
Moisture  
Dew Point 19 °F    
Average Humidity 43    
Maximum Humidity 61    
Minimum Humidity 20    
Precipitation  
Precipitation 0.00 in - - ()
Sea Level Pressure  
Sea Level Pressure 30.13 in    
Wind  
Wind Speed 12 mph (NNW)    
Max Wind Speed 29 mph    
Max Gust Speed 40 mph    
Visibility 10 miles    
Events Rain    
Averages and records for this station are not official NWS values.
T = Trace of Precipitation, MM = Missing Value Source: NWS Daily Summary

Daily Weather History Graph

Daily Weather History Graph

Search for Another Location

Airport or City:

Trip Planner

Search our weather history database for the weather conditions in past years. The results will help you decide how hot, cold, wet, or windy it might be!

Date:

Astronomy

Jan. 14, 2014 Rise Set
Actual Time 7:43 AM CST 5:33 PM CST
Civil Twilight 7:14 AM CST 6:02 PM CST
Nautical Twilight 6:42 AM CST 6:34 PM CST
Astronomical Twilight 6:10 AM CST 7:05 PM CST
Moon 4:39 PM CST (1/14) 6:19 AM CST (1/14)
Length of Visible Light 10h 47m
Length of Day
9h 50m
Waxing Gibbous, 98% of the Moon is Illuminated
Jan 14
Waxing Gibbous
Jan 15
Full
Jan 23
Last Quarter
Jan 30
New
Feb 6
First Quarter

Hourly Weather History & Observations

Time (CST) Temp. Windchill Dew Point Humidity Pressure Visibility Wind Dir Wind Speed Gust Speed Precip Events Conditions
12:58 AM 37.8 °F 35.3 °F 20.1 °F 49% 29.87 in 10.0 mi SW 3.5 mph - N/A   Clear
1:58 AM 38.8 °F 33.8 °F 20.8 °F 48% 29.87 in 10.0 mi WSW 6.9 mph - N/A   Clear
2:58 AM 38.8 °F 35.4 °F 22.1 °F 51% 29.87 in 10.0 mi West 4.6 mph - N/A   Clear
3:58 AM 41.4 °F 36.2 °F 22.6 °F 47% 29.89 in 10.0 mi WNW 8.1 mph - N/A   Clear
4:58 AM 43.3 °F 37.7 °F 24.6 °F 48% 29.91 in 10.0 mi WNW 10.4 mph - N/A   Partly Cloudy
5:40 AM 42.8 °F 37.5 °F 26.6 °F 53% 29.93 in 10.0 mi NW 9.2 mph - N/A Rain Light Rain
5:58 AM 43.5 °F 36.1 °F 29.7 °F 58% 29.95 in 10.0 mi North 16.1 mph 21.9 mph 0.00 in   Light Drizzle
6:01 AM 42.8 °F 36.6 °F 30.2 °F 61% 29.93 in 10.0 mi NNW 11.5 mph 21.9 mph N/A   Partly Cloudy
6:58 AM 45.5 °F 38.1 °F 29.7 °F 54% 30.01 in 10.0 mi NW 18.4 mph 26.5 mph 0.00 in   Mostly Cloudy
7:58 AM 43.2 °F 35.9 °F 30.4 °F 61% 30.05 in 10.0 mi North 15.0 mph 23.0 mph N/A   Clear
8:58 AM 43.0 °F 35.4 °F 27.5 °F 54% 30.12 in 10.0 mi North 16.1 mph 28.8 mph N/A   Clear
9:58 AM 43.2 °F 33.6 °F 23.4 °F 46% 30.17 in 10.0 mi North 25.3 mph 38.0 mph N/A   Clear
10:30 AM 44.6 °F 34.9 °F 24.8 °F 46% 30.15 in 10.0 mi North 28.8 mph 40.3 mph N/A   Squalls
10:58 AM 44.8 °F 35.7 °F 21.0 °F 39% 30.20 in 10.0 mi North 25.3 mph 35.7 mph N/A   Clear
11:58 AM 42.8 °F 33.5 °F 18.5 °F 38% 30.22 in 10.0 mi North 23.0 mph 33.4 mph N/A   Clear
12:58 PM 43.5 °F 34.7 °F 16.3 °F 34% 30.21 in 10.0 mi North 21.9 mph 26.5 mph N/A   Clear
1:58 PM 45.9 °F 38.0 °F 9.9 °F 23% 30.22 in 10.0 mi North 20.7 mph 29.9 mph N/A   Clear
2:58 PM 46.0 °F 37.4 °F 6.6 °F 20% 30.24 in 10.0 mi North 25.3 mph 29.9 mph N/A   Clear
3:58 PM 45.5 °F 38.1 °F 6.1 °F 20% 30.26 in 10.0 mi NNW 18.4 mph - N/A   Clear
4:58 PM 44.1 °F 36.8 °F 7.5 °F 22% 30.27 in 10.0 mi North 16.1 mph - N/A   Clear
5:58 PM 41.2 °F 35.5 °F 9.7 °F 28% 30.29 in 10.0 mi NNW 9.2 mph - N/A   Clear
6:58 PM 38.7 °F 34.3 °F 13.8 °F 36% 30.30 in 10.0 mi NW 5.8 mph - N/A   Clear
7:58 PM 36.5 °F 31.8 °F 15.3 °F 42% 30.31 in 10.0 mi WNW 5.8 mph - N/A   Clear
8:58 PM 36.1 °F 28.7 °F 14.2 °F 41% 30.32 in 10.0 mi NW 10.4 mph - N/A   Clear
9:58 PM 34.3 °F 30.2 °F 14.2 °F 44% 30.33 in 10.0 mi WNW 4.6 mph - N/A   Clear
10:58 PM 33.4 °F 25.4 °F 15.8 °F 48% 30.34 in 10.0 mi NW 10.4 mph - N/A   Clear
11:58 PM 34.0 °F 26.0 °F 17.2 °F 50% 30.35 in 10.0 mi NNW 10.4 mph - N/A   Scattered Clouds